Aérodrome :
LOGIN :

S'inscrire | Disclaimer

   EN    FR    IT 

 










Légende :    VFR   VFR Marginal   IFR   IFR Intensif   IFR Très Intensif
Visi : 
Plafond : 
>= 8 km
>= 3000ft
5 à 8 km
1000 à 3000 ft
1500m à 5 km
500 à 1000 ft
800 à 1500m
200 à 500 ft
< 800m
< 200 ft
Symboles :   Orages  Brouillard  Fortes neiges  Fortes précipitations  Vent > 20 kt
SIGMETs :   Divers  Orages  Givrage  Turbulence  Onde Orograph.  Cendres Volcan.







- Altitude de l'aérodrome : 3368 ft


LSGC - Les Eplatures

DERNIER METAR :
  • 270120Z AUTO 25005KT 180V300 CAVOK 16/12 Q1014

METARs EXPIRÉS :
  • 270050Z AUTO VRB03KT CAVOK 15/13 Q1014
  • 270020Z AUTO 29003KT 200V360 9999 -RA BKN/// 15/13 Q1014
  • 262350Z AUTO 31003KT CAVOK 14/13 Q1015
  • 262320Z AUTO VRB03KT CAVOK 14/13 Q1015
  • 262250Z AUTO VRB04KT CAVOK 15/13 Q1015

Prévision TAF périmée.
Pas de NOTAMs connus pour ce terrain.



MET'MAP, la Météo Aéronautique d'un coup d'oeil ! - Copyright ORBIFLY Décembre 2007 - Disclaimer

ORBIFLY MET'MAP TEAM :

Programmation & Développement : Alexandra Zaïnal
Conception & Développement : Baudouin d'Aumeries
Co-Programmation & Développement : Marc-Olivier Méhu
Soutien technique & logistique : Manuel Goepfert

Contact : metmap@orbifly.com




SOURCES & CREDITS :

   NOAA